Regional Weather Roundup
Issued by NWS

Home | Current Version | Previous Version | Text Only | Print | Product List | Glossary Off
Versions: 1 2 3 4 5 6 7 8 9 10 11 12 13 14 15 16 17 18 19 20 21 22 23 24 25 26 27 28 29 30 31 32 33 34 35 36 37 38 39 40 41 42 43 44 45 46 47 48 49 50

000
ASUS43 KMKX 262311
RWRWI

WISCONSIN REGIONAL WEATHER ROUNDUP
NATIONAL WEATHER SERVICE MILWAUKEE/SULLIVAN WI
500 PM CST WED NOV 26 2014

NOTE: "FAIR" INDICATES FEW OR NO CLOUDS BELOW 12,000 FEET WITH NO
SIGNIFICANT WEATHER AND/OR OBSTRUCTIONS TO VISIBILITY.

WIZ001-002-006>008-014>016-023>028-270000-
NORTHWEST WISCONSIN

CITY           SKY/WX    TMP DP  RH WIND       PRES   REMARKS
SUPERIOR ARPT  CLOUDY    18   8  64 N9        30.31R WCI   7
ASHLAND        CLOUDY    20  14  77 NW6       30.26R WCI  12
HAYWARD        CLOUDY    20  15  81 N6        30.23R WCI  12
SIREN          CLOUDY    22  13  68 N7        30.26R WCI  14
CUMBERLAND     MOCLDY    21  18  86 N6        30.21S WCI  14
RICE LAKE      LGT SNOW  24  19  81 N6        30.23S WCI  17
CHETEK         FLURRIES  24  19  80 NW3       30.22S
LADYSMITH      CLOUDY    25  20  80 NW10      30.20S WCI  15
EAU CLAIRE     CLOUDY    23  19  85 NW5       30.22R WCI  17
MENOMONIE      CLOUDY    26  20  81 NW6       30.23R WCI  19
NEW RICHMOND   MOCLDY    22  15  76 N5        30.24S WCI  15
OSCEOLA        MOCLDY    23  17  75 NW6       30.28R WCI  16
$$

WIZ003>005-009-010-017-018-270000-
NORTH CENTRAL WISCONSIN

CITY           SKY/WX    TMP DP  RH WIND       PRES   REMARKS
MANITOWISH WTR LGT SNOW  21  20  93 NW9       30.13S WCI  11
ARBOR VITAE    LGT SNOW  23  20  89 CALM      30.13S
WOODRUFF       LGT SNOW  23  20  89 CALM      30.13S
RHINELANDER    LGT SNOW  21  18  88 W5        30.13S FOG     WCI  15
EAGLE RIVER    FLURRIES  21  17  84 NW5       30.12R WCI  15
LAND O LAKES   CLOUDY    22  19  88 N6        30.13R WCI  15
PHILLIPS       CLOUDY    20  18  91 CALM      30.16R
TOMAHAWK       LGT SNOW  22  20  91 CALM      30.15R
MEDFORD        LGT SNOW  22  19  89 NW5       30.15R WCI  16
MERRILL        LGT SNOW  24  20  87 NW3       30.15R
$$

WIZ029-030-035-036-043>047-270000-
CENTRAL WISCONSIN

CITY           SKY/WX    TMP DP  RH WIND       PRES   REMARKS
WAUSAU         FLURRIES  24  19  81 NW5       30.14R WCI  18
MOSINEE        LGT SNOW  23  21  93 NW5       30.15S WCI  17
MARSHFIELD     LGT SNOW  24  20  84 NW8       30.16R FOG     WCI  15
STEVENS POINT  CLOUDY    19  18  96 CALM      30.16S FOG
WAUPACA        PTCLDY    21  17  84 CALM      30.18S
WAUTOMA        CLOUDY    21  18  88 CALM      30.19R
WISC RAPIDS    CLOUDY    24  17  74 CALM      30.18S
CAMP DOUGLAS   CLOUDY    21  21 100 CALM      30.17S
$$

WIZ011>013-019>022-031-037>040-048>050-270000-
NORTHEAST WISCONSIN

CITY           SKY/WX    TMP DP  RH WIND       PRES   REMARKS
ANTIGO         FLURRIES  22  17  83 NW7       30.13R WCI  13
SHAWANO        CLOUDY    23  19  82 CALM      30.18R
OCONTO         PTCLDY    20  18  91 NW3       30.17S
STURGEON BAY   PTCLDY    21  16  79 NW3       30.16S
GREEN BAY      PTCLDY    20  16  84 NW5       30.18S WCI  13
MANITOWOC      CLOUDY    23  20  88 W3        30.17S
APPLETON       MOCLDY    19  19 100 NW5       30.17R FOG     WCI  13
CLINTONVILLE   MOCLDY    18  16  93 CALM      30.17S FOG
OSHKOSH        MOCLDY    21  16  81 MISG      30.17R
$$

WIZ032>034-041-042-053>061-270000-
SOUTHWEST WISCONSIN

CITY           SKY/WX    TMP DP  RH WIND       PRES   REMARKS
LA CROSSE      LGT SNOW  27  23  85 NW8       30.21R FOG     WCI  19
SPARTA         CLOUDY    26  20  79 CALM      30.20R
VIROQUA        CLOUDY    24  18  80 N3        30.16R
BOSCOBEL       MOCLDY    22  18  85 CALM      30.20R
PRAIRIE DU CHI CLOUDY    26  20  79 E3        30.19R
PLATTEVILLE    CLOUDY    25  21  87 N13       30.16R WCI  13
$$

WIZ056-057-062-063-064-067-068-270000-
SOUTH CENTRAL WISCONSIN

CITY           SKY/WX    TMP DP  RH WIND       PRES   REMARKS
REEDSBURG      MOCLDY    21  18  87 CALM      30.17R
BARABOO/DELLS  MOCLDY    17  15  89 CALM      30.17R FOG
LONE ROCK      CLOUDY    24  16  71 W3        30.19R
MINERAL POINT  CLOUDY    23  21  93 N6        30.15R WCI  16
MADISON        CLOUDY    20  16  84 CALM      30.17R FOG
MIDDLETON      CLOUDY    22  18  85 CALM      30.17S
WATERTOWN      CLOUDY    21  20  95 NW3       30.15S
MONROE         CLOUDY    23  21  93 N9        30.13R WCI  13
JANESVILLE     CLOUDY    25  21  86 N8        30.14R FOG     WCI  16
$$

WIZ051-052-058>065-066-070>072-270000-
SOUTHEAST WISCONSIN

CITY           SKY/WX    TMP DP  RH WIND       PRES   REMARKS
MILWAUKEE      CLOUDY    30  21  69 N5        30.13S WCI  25
WAUKESHA       CLOUDY    25  21  86 NW8       30.14S FOG     WCI  16
MILWAUKEE/TIMM NOT AVBL
RACINE         CLOUDY    29  22  75 NW5       30.15S WCI  24
BURLINGTON     CLOUDY    25  22  89 NW5       30.14R WCI  19
KENOSHA        CLOUDY    28  23  81 NW7       30.13R WCI  21
FOND DU LAC    MOCLDY    21  16  81 NW5       30.17R WCI  15
SHEBOYGAN      MOCLDY    22  18  85 N6        30.16R WCI  14
WEST BEND      CLOUDY    27  21  80 NW6       30.15R WCI  20
JUNEAU         CLOUDY    22  19  87 NW5       30.17R WCI  16
$$

LSZ147-162-270000-
LAKE SUPERIOR

STATION/POSITION TIME  TEMP    WIND        PRES    WAVE
                       AIR SEA DIR/SP/G            HT/PER
                 (UTC) (F)     (DEG/KT/KT) (MB)    (FT/S)
DEVILS ISLAND    2300   21     350/ 17/ 20 1026.2R
PORT WING        2200   23     330/ 12/ 15 1024.7R
SAXON HARBOR     2200   25     340/ 13/ 16 1023.4R
$$

LMZ867-665-643>646-270000-
LAKE MICHIGAN

STATION/POSITION TIME  TEMP    WIND        PRES    WAVE
                       AIR SEA DIR/SP/G            HT/PER
                 (UTC) (F)     (DEG/KT/KT) (MB)    (FT/S)
CHAMBERS ISLAND  2200   24     240/  2/  4 1021.7S
N MID LAKE BUOY  2250   30 42  260/  8/ 12 1022.1F   1
NORTHPORT PIER   2300   25     300/  4/  8 1021.7S
SISTER BAY       2213           CALM  /  3   N/A
KEWAUNEE LAKESHO 2200   24     310/  3/  6 1020.6R
SHEBOYGAN LAKESH 2300   25 36  330/ 12/ 13 1022.7R
PORT WASHINGTON  2200   29     340/  3/  6 1021.7R
MILWAUKEE LAKESH 2200   30     340/  5/  6   N/A
S MID LAKE BUOY  2250   32 42  100/  4/  6 1021.0F   1/ 3
KENOSHA   LAKESH 2300   29     310/  6/  9 1020.3S
$$

TC  - TEMPERATURE IN CELSIUS
VSB - VISIBILITY IN STATUTE MILES
WCI - WIND CHILL INDEX
HX  - HEAT INDEX




USA.gov is the U.S. government's official web portal to all federal, state and local government web resources and services.